Weather History for Springfield, MO

Change the Weather History Date:

Thursday, January 31, 2013

  Actual Average Record
Temperature  
Mean Temperature 25 °F 34 °F  
Max Temperature 38 °F 45 °F 73 °F (1989)
Min Temperature 11 °F 23 °F -7 °F (1899)
Degree Days  
Heating Degree Days 40 31  
Month to date heating degree days 869 1005  
Since 1 July heating degree days 2516 2813  
Cooling Degree Days 0 0  
Month to date cooling degree days 0 0  
Year to date cooling degree days 0 0  
Moisture  
Dew Point 16 °F    
Average Humidity 74    
Maximum Humidity 88    
Minimum Humidity 59    
Precipitation  
Precipitation 0.01 in 0.08 in 0.94 in (1923)
Month to date precipitation 3.06 2.47  
Year to date precipitation 3.06 2.47  
Snow  
Snow 0.30 in - - ()
Month to date snowfall 0.4  
Since 1 July snowfall 1.7  
Snow Depth 0.00 in    
Sea Level Pressure  
Sea Level Pressure 30.18 in    
Wind  
Wind Speed 11 mph (WNW)    
Max Wind Speed 28 mph    
Max Gust Speed 32 mph    
Visibility 8 miles    
Events Snow    
T = Trace of Precipitation, MM = Missing Value Source: NWS Daily Summary

Daily Weather History Graph

Daily Weather History Graph

Search for Another Location

Airport:

Trip Planner

Search our weather history database for the weather conditions in past years. The results will help you decide how hot, cold, wet, or windy it might be!

Date:

Astronomy

Jan. 31, 2013 Rise Set
Actual Time 7:17 AM CST 5:37 PM CST
Civil Twilight 6:49 AM CST 6:04 PM CST
Nautical Twilight 6:18 AM CST 6:36 PM CST
Astronomical Twilight 5:47 AM CST 7:06 PM CST
Moon 10:32 PM CST (1/31) 9:24 AM CST (1/31)
Length of Visible Light 11h 15m
Length of Day
10h 20m
Waning Gibbous, 79% of the Moon is Illuminated
Jan 31
Waning Gibbous
Feb 3
Last Quarter
Feb 10
New
Feb 17
First Quarter
Feb 25
Full

Hourly Weather History & Observations

Time (CST) Temp. Windchill Dew Point Humidity Pressure Visibility Wind Dir Wind Speed Gust Speed Precip Events Conditions
12:52 AM 26.1 °F 15.0 °F 18.0 °F 71% 30.04 in 10.0 mi West 12.7 mph - N/A   Overcast
1:11 AM 26.1 °F 18.4 °F 18.0 °F 71% 29.99 in 10.0 mi West 6.9 mph - N/A   Scattered Clouds
1:52 AM 23.0 °F 17.0 °F 17.1 °F 78% 30.02 in 10.0 mi SW 4.6 mph - N/A   Clear
2:52 AM 21.9 °F 13.4 °F 17.1 °F 82% 30.02 in 10.0 mi SW 6.9 mph - N/A   Clear
3:52 AM 21.0 °F 12.4 °F 17.1 °F 85% 30.01 in 10.0 mi SSW 6.9 mph - N/A   Clear
4:52 AM 21.0 °F - 17.1 °F 85% 30.02 in 10.0 mi Calm Calm - N/A   Clear
5:52 AM 19.9 °F 11.1 °F 16.0 °F 85% 30.03 in 10.0 mi SSW 6.9 mph - N/A   Clear
6:52 AM 21.9 °F 13.4 °F 18.0 °F 85% 30.01 in 10.0 mi South 6.9 mph - N/A   Scattered Clouds
7:52 AM 23.0 °F 17.0 °F 19.0 °F 85% 30.02 in 10.0 mi SSE 4.6 mph - N/A   Clear
8:52 AM 27.0 °F 23.0 °F 21.0 °F 78% 30.06 in 10.0 mi SW 3.5 mph - N/A   Mostly Cloudy
9:52 AM 34.0 °F 23.8 °F 23.0 °F 64% 30.07 in 10.0 mi WNW 16.1 mph 23.0 mph N/A   Partly Cloudy
10:52 AM 36.0 °F 28.5 °F 24.1 °F 62% 30.09 in 10.0 mi WNW 10.4 mph - N/A   Clear
11:52 AM 37.0 °F 29.3 °F 24.1 °F 59% 30.11 in 10.0 mi WNW 11.5 mph - N/A   Mostly Cloudy
12:52 PM 37.0 °F 28.1 °F 24.1 °F 59% 30.14 in 10.0 mi NW 15.0 mph - N/A   Overcast
1:14 PM 34.0 °F 23.0 °F 25.0 °F 70% 30.12 in 2.5 mi NNW 18.4 mph - 0.00 in Snow Light Snow
1:32 PM 32.0 °F 21.2 °F 26.1 °F 79% 30.13 in 2.5 mi NW 16.1 mph 24.2 mph 0.00 in Snow Light Snow
2:19 PM 28.0 °F 14.9 °F 25.0 °F 88% 30.16 in 1.0 mi NW 19.6 mph 27.6 mph 0.00 in Snow Light Snow
2:52 PM 26.1 °F 12.3 °F 21.9 °F 84% 30.22 in 2.0 mi NNW 19.6 mph 26.5 mph 0.00 in Snow Light Snow
3:00 PM 26.1 °F 13.6 °F 21.9 °F 84% 30.18 in 1.0 mi NW 16.1 mph 28.8 mph 0.00 in Snow Light Snow
3:24 PM 26.1 °F 13.1 °F 21.9 °F 84% 30.17 in 3.0 mi NW 17.3 mph 27.6 mph 0.01 in Snow Light Snow
3:42 PM 25.0 °F 9.5 °F 19.0 °F 78% 30.18 in 5.0 mi NNW 24.2 mph 31.1 mph 0.01 in Snow Light Snow
3:52 PM 25.0 °F 11.3 °F 17.1 °F 72% 30.25 in 7.0 mi NW 18.4 mph - 0.01 in Snow Light Snow
4:52 PM 24.1 °F 11.5 °F 14.0 °F 65% 30.27 in 10.0 mi NW 15.0 mph - 0.00 in   Mostly Cloudy
5:52 PM 21.0 °F 9.9 °F 10.9 °F 65% 30.31 in 10.0 mi NW 10.4 mph - N/A   Clear
6:52 PM 19.9 °F 9.3 °F 9.0 °F 62% 30.34 in 10.0 mi NW 9.2 mph - N/A   Clear
7:52 PM 19.0 °F 10.0 °F 8.1 °F 62% 30.38 in 10.0 mi NW 6.9 mph - N/A   Clear
8:52 PM 18.0 °F 4.2 °F 8.1 °F 65% 30.42 in 10.0 mi NW 13.8 mph - N/A   Clear
9:15 PM 16.0 °F 1.1 °F 6.1 °F 65% 30.38 in 10.0 mi NNW 15.0 mph - N/A   Clear
9:52 PM 14.0 °F -1.4 °F 5.0 °F 67% 30.44 in 10.0 mi NNW 15.0 mph - N/A   Clear
10:52 PM 12.9 °F -0.9 °F 1.9 °F 62% 30.45 in 10.0 mi NW 11.5 mph - N/A   Clear
11:52 PM 10.9 °F 0.2 °F 3.0 °F 70% 30.46 in 10.0 mi NW 6.9 mph - N/A   Clear